Regional Weather Roundup
Issued by NWS

Home | Current Version | Previous Version | Text Only | Print | Product List | Glossary Off
Versions: 1 2 3 4 5 6 7 8 9 10 11 12 13 14 15 16 17 18 19 20 21 22 23 24 25 26 27 28 29 30 31 32 33 34 35 36 37 38 39 40 41 42 43 44 45 46 47 48 49 50

000
ASUS43 KLOT 121806
RWRIL

ILLINOIS REGIONAL WEATHER ROUNDUP
NATIONAL WEATHER SERVICE CHICAGO/ROMEOVILLE IL
100 PM CDT SAT JUL 12 2014

NOTE: "FAIR" INDICATES FEW OR NO CLOUDS BELOW 12,000 FEET WITH NO
SIGNIFICANT WEATHER AND/OR OBSTRUCTIONS TO VISIBILITY.

* THESE STATIONS ARE NOT UNDER NWS QUALITY CONTROL. THEY ALSO MAY NOT
  REPORT WEATHER SUCH AS PRECIPITATION OR FOG.

ILZ001-002-007-009-015-016-024-121900-
NORTHWEST ILLINOIS

CITY           SKY/WX    TMP DP  RH WIND       PRES   REMARKS
MOLINE         CLOUDY    82  72  69 S12       30.01F HX  87
6HR MIN TEMP:  71; 6HR MAX TEMP:  82; 6HR PCP:  0.41;

STERLING*      CLOUDY    75  72  88 S3        30.04F
SAVANNA*       CLOUDY    78  72  82 CALM      30.01F
$$

ILZ003-004-008-010-011-017-018-121900-
NORTH CENTRAL ILLINOIS

CITY           SKY/WX    TMP DP  RH WIND       PRES   REMARKS
ROCKFORD       CLOUDY    75  69  81 S13       30.04F
6HR MIN TEMP:  71; 6HR MAX TEMP:  75; 6HR PCP:  0.03;

FREEPORT*      CLOUDY    73  71  91 S12       30.05S FOG
ROCHELLE*      CLOUDY    75  70  83 S13       30.04S
DE KALB*       CLOUDY    74  70  86 SW16      30.05F
PERU*          CLOUDY    76  72  85 S9        30.05S
$$

ILZ005-006-012>014-019>023-121900-
NORTHEAST ILLINOIS

CITY           SKY/WX    TMP DP  RH WIND       PRES   REMARKS
CHICAGO-OHARE  CLOUDY    77  69  76 SW18G29   30.01S
6HR MIN TEMP:  70; 6HR MAX TEMP:  77; 6HR PCP:  0.08;

CHICAGO-MIDWAY CLOUDY    78  72  81 SW17G29   30.01F HX  80
6HR MIN TEMP:  70; 6HR MAX TEMP:  78;

AURORA         CLOUDY    77  70  79 S17G23    30.04F
6HR MIN TEMP:  70; 6HR MAX TEMP:  78; 6HR PCP:  0.33;

LANSING*       CLOUDY    72  69  90 SW16      30.03F
JOLIET*        CLOUDY    74  69  85 S13G18    30.04F
WAUKEGAN       CLOUDY    75  69  81 SW12G20   30.00R
6HR MIN TEMP:  71; 6HR MAX TEMP:  74; 6HR PCP:  0.01;

DUPAGE AIRPORT CLOUDY    77  71  82 SW14      30.03S
6HR MIN TEMP:  69; 6HR MAX TEMP:  78;

KANKAKEE*      CLOUDY    72  70  92 S14G21    30.06F
WHEELING       CLOUDY    76  70  82 SW14      30.03R
6HR MIN TEMP:  72; 6HR MAX TEMP:  77; 6HR PCP:  0.03;

MORRIS*        CLOUDY    76  71  86 S9        30.04S
ROMEOVILLE*    CLOUDY    74  71  90 SW13      30.04S
NORTHERLY ISL    N/A     74  68  81 SW14        N/A
$$

LMZ740>746-121900-
SOUTHERN LAKE MICHIGAN

STATION/POSITION SKY/WX   TEMP    WIND        PRES    VSBY  WAVE
                          AIR SEA DIR/SP/G                  HT/PER
                          (F)     (DEG/KT/KT) (MB)    (MI)  (FT/S)
SOUTHERN BUOY              65 63  140/ 14/ 16 1016.0F         1/ 3
WAUKEGAN HARBOR            72     220/ 11/ 15 1017.3R
HARRISON CRIB              71     200/ 24/ 30   N/A
BURNHAM HARBOR             74     200/ 15/ 18   N/A
CALUMET HARBOR             71     190/ 10/ 17 1017.3S
MICHIGAN CITY              71     170/ 14/ 18   N/A
$$

ILZ025>027-034>036-040-047-049-050-058-095>099-121900-
WEST-CENTRAL ILLINOIS

CITY           SKY/WX    TMP DP  RH WIND       PRES   REMARKS
QUINCY         PTSUNNY   84  72  67 SW10      30.05F HX  89
GALESBURG*     CLOUDY    82  76  80 SE8       30.02F HX  90
MACOMB*        CLOUDY    83  74  73 S8        30.05F HX  90
JACKSONVILLE*  CLOUDY    87  76  69 S8        30.08S HX  97
PITTSFIELD*    PTSUNNY   88  74  63 S6        30.08S HX  95
$$

ILZ028>032-037-038-041>044-048-051>054-059>061-121900-
CENTRAL ILLINOIS

CITY           SKY/WX    TMP DP  RH WIND       PRES   REMARKS
PONTIAC        CLOUDY    79  73  83 S12G22    30.05F HX  82
BLOOMINGTON    CLOUDY    76  71  84 S17       30.07F
DECATUR        CLOUDY    82  76  81 SE10      30.08F HX  89
PEORIA         CLOUDY    81  72  74 S7        30.04S HX  85
6HR MIN TEMP:  77; 6HR MAX TEMP:  83; 6HR PCP: TRACE;

LACON*         CLOUDY    77  73  87 S6        30.03S
LINCOLN*       CLOUDY    85  75  70 S8        30.02F HX  94
SPRINGFIELD    CLOUDY    86  75  69 SW7       30.06F HX  95
6HR MIN TEMP:  78; 6HR MAX TEMP:  88;

TAYLORVILLE    PTSUNNY   82  75  78 S6        30.08F HX  89
$$

ILZ033-039-045-046-055>057-062-063-121900-
EAST-CENTRAL ILLINOIS

CITY           SKY/WX    TMP DP  RH WIND       PRES   REMARKS
CHAMPAIGN      CLOUDY    76  71  85 SE15      30.10F
RANTOUL*       CLOUDY    79  71  78 S16       30.09F HX  81
MATTOON        CLOUDY    78  73  84 S13       30.11F HX  81
PARIS*         CLOUDY    72  71  96 SE12      30.13F
$$

ILZ079-100>102-121900-
SOUTHWEST ILLINOIS

CITY           SKY/WX    TMP DP  RH WIND       PRES   REMARKS
ALTON          MOSUNNY   88  75  66 SW8       30.09F HX  97
CAHOKIA*       MOSUNNY   92  71  50 SE6       30.08F HX  98
SPARTA*        MOSUNNY   88  73  62 CALM      30.11F HX  96
$$

ILZ064>066-069>071-074>076-080>082-084>086-088>090-092>094-121900-
SOUTH-CENTRAL ILLINOIS

CITY           SKY/WX    TMP DP  RH WIND       PRES   REMARKS
CARBONDALE     MOSUNNY   89  74  60 SW8       30.12S HX  98
6HR MIN TEMP:  74; 6HR MAX TEMP:  89;

CAIRO*         PTSUNNY   91  74  58 SW6       30.13F HX 100
MARION         PTSUNNY   88  77  70 S9        30.14S HX 100
MT. VERNON     PTSUNNY   90  75  62 CALM      30.13F HX 100
CENTRALIA*     PTSUNNY   94  70  45 S9        30.10F HX 100
SALEM*         CLOUDY    85  76  74 SE7       30.11F HX  95
METROPOLIS*    PTSUNNY   87  68  52 S5        30.14S HX  90
$$

ILZ067-068-072-073-078-083-087-091-121900-
SOUTHEAST ILLINOIS

CITY           SKY/WX    TMP DP  RH WIND       PRES   REMARKS
FLORA*         CLOUDY    81  73  76 S10       30.13F HX  86
HARRISBURG*    CLOUDY    87  74  65 SW8       30.15S HX  94
ROBINSON*      CLOUDY    78  74  86 S7        30.14F HX  81
CARMI*         CLOUDY    83  76  79 E7        30.15F HX  90
$$

ABBREVIATIONS USED IN REMARKS
   TC - TEMPERATURE IN CELSIUS
  WCI - WIND CHILL INDEX
   HX - HEAT INDEX
  VSB - VISIBILITY
$$




USA.gov is the U.S. government's official web portal to all federal, state and local government web resources and services.